Temp
-14 -14 -13 -13 -13 -12 -12 -12 -12 -12 -12 -12 -12 -12 -12 -12 -12 -13 -13 -12 -13 -13 -13 -13 -13 -13 -13 -13 -13 -13 -13 -13 -13 -14 -14 -14 -14 -15 -15 -15 -15 -15
-14 -14 -14 -13 -13 -12 -12 -12 -13 -12 -12 -12 -12 -12 -12 -12 -13 -13 -13 -12 -13 -13 -13 -13 -13 -13 -13 -13 -13 -13 -13 -13 -13 -14 -14 -14 -15 -15 -15 -15 -15 -15
-15 -15 -14 -13 -13 -12 -12 -13 -13 -12 -13 -13 -12 -12 -12 -12 -13 -13 -13 -13 -13 -13 -13 -13 -13 -13 -13 -13 -13 -13 -13 -13 -13 -13 -14 -14 -15 -15 -15 -15 -15 -15
-15 -15 -14 -13 -13 -12 -13 -13 -13 -13 -13 -13 -12 -12 -12 -12 -13 -13 -13 -13 -13 -13 -13 -13 -13 -13 -13 -13 -13 -13 -13 -13 -13 -13 -14 -14 -14 -15 -15 -15 -15 -15
-15 -14 -14 -13 -13 -13 -13 -13 -13 -13 -13 -13 -12 -12 -13 -13 -13 -13 -13 -13 -13 -13 -13 -13 -13 -13 -13 -13 -13 -13 -13 -13 -13 -13 -14 -14 -14 -15 -15 -15 -15 -15
-14 -14 -14 -14 -14 -13 -13 -13 -13 -13 -13 -12 -12 -12 -13 -13 -13 -13 -13 -13 -13 -13 -13 -13 -13 -13 -13 -13 -13 -13 -13 -13 -13 -13 -14 -14 -14 -15 -15 -15 -15 -15
-14 -14 -14 -14 -14 -14 -13 -13 -13 -13 -13 -12 -12 -12 -13 -13 -13 -13 -13 -13 -13 -13 -13 -13 -13 -14 -14 -13 -13 -13 -13 -13 -13 -13 -14 -14 -14 -15 -15 -15 -15 -15
-15 -15 -15 -14 -14 -14 -13 -13 -13 -13 -13 -12 -12 -12 -13 -13 -13 -13 -13 -13 -13 -13 -13 -14 -14 -14 -14 -13 -13 -13 -13 -13 -13 -13 -14 -14 -14 -15 -15 -15 -15 -15
-15 -15 -15 -14 -14 -14 -14 -13 -13 -13 -13 -12 -12 -12 -13 -13 -13 -13 -13 -13 -13 -13 -13 -14 -14 -14 -14 -13 -13 -13 -14 -14 -14 -14 -14 -14 -14 -15 -15 -15 -15 -15
-15 -15 -15 -14 -14 -14 -14 -14 -13 -13 -13 -12 -12 -12 -13 -13 -13 -13 -13 -13 -13 -13 -13 -14 -14 -14 -14 -14 -14 -14 -14 -14 -14 -14 -14 -14 -14 -14 -15 -15 -15 -15
-15 -15 -14 -14 -14 -14 -14 -14 -13 -13 -13 -12 -12 -12 -13 -13 -13 -13 -13 -13 -13 -13 -13 -14 -14 -14 -14 -14 -14 -14 -14 -14 -14 -14 -14 -14 -14 -14 -15 -15 -15 -15
-15 -15 -14 -14 -14 -14 -14 -14 -13 -13 -13 -12 -13 -13 -13 -13 -13 -13 -13 -13 -13 -13 -14 -14 -14 -14 -14 -14 -14 -14 -14 -14 -14 -14 -14 -14 -14 -14 -15 -15 -15 -15
-15 -14 -14 -14 -14 -14 -14 -14 -13 -13 -13 -13 -13 -13 -13 -13 -13 -13 -14 -14 -14 -14 -14 -14 -14 -14 -14 -14 -13 -13 -13 -14 -14 -14 -14 -14 -14 -14 -14 -14 -15 -15
-14 -14 -14 -14 -14 -14 -14 -14 -13 -13 -13 -13 -13 -13 -13 -13 -13 -14 -14 -14 -14 -14 -14 -14 -14 -14 -14 -13 -13 -13 -13 -14 -14 -14 -14 -14 -14 -14 -14 -14 -15 -15
-14 -14 -14 -14 -14 -14 -14 -13 -13 -13 -13 -13 -13 -13 -13 -13 -13 -14 -14 -14 -14 -14 -14 -14 -14 -14 -14 -13 -13 -13 -13 -13 -14 -14 -14 -14 -14 -14 -14 -14 -14 -15
-14 -14 -14 -14 -14 -14 -14 -13 -13 -13 -13 -13 -13 -13 -13 -13 -14 -14 -14 -14 -14 -14 -14 -14 -14 -14 -14 -13 -13 -13 -13 -13 -14 -14 -14 -14 -14 -14 -14 -14 -15 -15
-14 -14 -14 -14 -14 -14 -14 -13 -13 -13 -13 -13 -13 -13 -13 -14 -14 -14 -14 -14 -14 -14 -14 -14 -14 -14 -14 -14 -14 -13 -13 -14 -14 -14 -14 -14 -14 -14 -14 -15 -15 -15
-14 -14 -14 -14 -14 -14 -14 -13 -13 -13 -13 -13 -13 -13 -14 -14 -14 -14 -14 -14 -14 -14 -14 -14 -14 -14 -14 -14 -14 -14 -14 -14 -14 -14 -14 -14 -14 -14 -14 -15 -15 -15
-14 -14 -14 -14 -14 -14 -13 -13 -13 -13 -13 -13 -13 -14 -14 -14 -14 -14 -14 -14 -14 -14 -14 -14 -14 -14 -14 -14 -14 -14 -14 -14 -14 -14 -14 -14 -14 -14 -15 -15 -15 -15
-14 -14 -14 -14 -14 -13 -13 -13 -13 -13 -13 -13 -13 -14 -14 -14 -14 -14 -14 -14 -14 -14 -14 -14 -14 -14 -14 -14 -14 -14 -14 -14 -14 -14 -14 -14 -14 -15 -15 -15 -15 -15
-14 -14 -14 -14 -14 -13 -13 -13 -13 -13 -13 -13 -13 -14 -14 -14 -14 -14 -14 -14 -14 -14 -14 -14 -14 -14 -14 -14 -14 -14 -13 -14 -14 -14 -14 -14 -14 -15 -15 -15 -15 -15
-14 -14 -14 -14 -14 -13 -13 -13 -13 -13 -13 -13 -14 -14 -14 -14 -14 -13 -14 -14 -14 -14 -14 -14 -14 -14 -14 -14 -14 -14 -14 -14 -14 -14 -14 -14 -14 -15 -15 -15 -15 -15
-14 -14 -14 -14 -14 -13 -13 -13 -13 -13 -13 -14 -14 -14 -14 -14 -14 -14 -14 -14 -14 -14 -14 -14 -14 -14 -14 -14 -14 -14 -14 -14 -14 -14 -14 -14 -15 -15 -15 -15 -15 -15
-14 -14 -14 -14 -14 -14 -13 -13 -13 -14 -14 -14 -14 -14 -14 -14 -14 -14 -14 -14 -14 -14 -14 -14 -14 -14 -14 -14 -14 -14 -14 -14 -14 -14 -14 -15 -15 -15 -15 -15 -15 -15
-14 -14 -14 -14 -14 -13 -13 -14 -14 -14 -14 -14 -14 -14 -14 -14 -14 -14 -14 -14 -14 -14 -14 -14 -14 -14 -14 -14 -14 -14 -14 -14 -14 -14 -14 -15 -15 -15 -15 -15 -15 -15
-13 -13 -13 -13 -13 -13 -13 -14 -14 -14 -14 -14 -14 -14 -14 -14 -14 -14 -14 -14 -14 -14 -14 -14 -14 -14 -14 -14 -14 -14 -14 -14 -14 -14 -14 -15 -15 -15 -15 -15 -15 -15
Height
5812 5812 5812 5812 5812 5812 5812 5812 5813 5814 5813 5813 5813 5812 5812 5812 5812 5812 5811 5812 5812 5812 5812 5812 5812 5812 5811 5811 5811 5810 5809 5808 5808 5808 5807 5807 5806 5806 5806 5805 5806 5805
5808 5809 5809 5809 5809 5809 5809 5809 5810 5811 5811 5810 5810 5809 5809 5809 5809 5809 5809 5809 5809 5809 5809 5809 5809 5809 5809 5808 5808 5807 5807 5806 5806 5805 5805 5804 5804 5804 5803 5803 5803 5803
5805 5805 5805 5806 5806 5806 5806 5806 5807 5808 5808 5807 5807 5806 5806 5806 5806 5806 5806 5807 5807 5807 5807 5807 5806 5806 5806 5806 5805 5805 5804 5804 5803 5803 5802 5802 5801 5801 5801 5801 5801 5801
5801 5801 5802 5802 5802 5803 5803 5803 5804 5804 5804 5804 5804 5803 5803 5802 5803 5803 5804 5804 5804 5804 5804 5804 5804 5804 5803 5803 5803 5802 5802 5801 5801 5800 5800 5799 5799 5799 5799 5799 5798 5798
5797 5797 5798 5799 5799 5799 5800 5800 5801 5801 5801 5800 5800 5800 5800 5800 5800 5800 5801 5801 5802 5802 5802 5802 5801 5801 5801 5800 5800 5800 5800 5799 5798 5798 5797 5797 5796 5796 5796 5796 5796 5796
5793 5793 5794 5795 5795 5796 5796 5797 5797 5798 5798 5797 5797 5797 5797 5797 5797 5798 5798 5799 5799 5799 5799 5799 5799 5799 5798 5798 5798 5797 5797 5797 5796 5796 5795 5794 5794 5794 5794 5794 5793 5793
5789 5790 5791 5791 5792 5792 5793 5793 5794 5794 5794 5794 5794 5794 5794 5794 5794 5795 5796 5796 5797 5797 5797 5797 5796 5796 5796 5796 5795 5795 5795 5794 5794 5793 5793 5792 5791 5791 5791 5791 5791 5790
5786 5786 5787 5788 5788 5789 5790 5790 5791 5791 5791 5791 5790 5790 5791 5791 5792 5792 5793 5793 5794 5794 5794 5794 5794 5794 5793 5793 5793 5792 5792 5792 5791 5791 5790 5789 5789 5789 5789 5788 5788 5788
5782 5783 5784 5784 5785 5786 5786 5787 5787 5787 5787 5787 5787 5787 5788 5788 5789 5789 5790 5790 5791 5791 5791 5791 5791 5791 5791 5791 5790 5790 5790 5789 5789 5788 5788 5787 5786 5786 5786 5785 5785 5785
5778 5779 5780 5781 5782 5782 5783 5783 5783 5784 5784 5784 5784 5784 5785 5785 5786 5786 5787 5788 5788 5788 5788 5788 5788 5788 5788 5788 5788 5788 5787 5787 5787 5786 5785 5785 5784 5783 5783 5783 5782 5782
5774 5775 5776 5777 5778 5779 5779 5779 5779 5780 5780 5780 5780 5781 5781 5782 5783 5784 5784 5785 5785 5785 5785 5786 5786 5786 5786 5786 5786 5785 5785 5785 5784 5784 5783 5782 5782 5781 5781 5780 5780 5779
5770 5772 5773 5774 5774 5775 5775 5775 5776 5776 5776 5777 5777 5777 5778 5779 5780 5781 5781 5782 5782 5782 5783 5783 5783 5783 5784 5784 5783 5783 5783 5782 5782 5781 5781 5780 5779 5779 5778 5778 5777 5777
5766 5768 5769 5770 5770 5771 5771 5771 5772 5772 5772 5773 5773 5774 5775 5776 5777 5778 5778 5779 5779 5780 5780 5780 5780 5781 5781 5781 5781 5780 5780 5779 5779 5779 5778 5778 5777 5776 5776 5775 5775 5774
5762 5764 5765 5766 5766 5766 5766 5767 5768 5768 5769 5769 5770 5771 5772 5773 5774 5775 5776 5776 5777 5777 5777 5777 5777 5778 5778 5778 5778 5777 5777 5777 5777 5776 5776 5775 5775 5774 5773 5773 5772 5771
5758 5760 5761 5761 5762 5762 5762 5763 5764 5764 5765 5766 5766 5768 5769 5770 5771 5772 5773 5774 5774 5774 5774 5774 5774 5774 5774 5775 5775 5774 5774 5774 5774 5774 5773 5773 5772 5771 5771 5770 5769 5768
5754 5755 5756 5757 5758 5758 5758 5759 5760 5760 5761 5762 5763 5764 5765 5766 5768 5769 5770 5770 5771 5771 5771 5771 5771 5771 5771 5772 5772 5772 5772 5771 5771 5771 5770 5769 5769 5768 5768 5767 5766 5765
5750 5751 5752 5753 5754 5754 5755 5755 5756 5757 5758 5759 5759 5761 5762 5763 5764 5766 5767 5767 5767 5767 5767 5767 5767 5768 5768 5769 5769 5769 5768 5768 5768 5767 5767 5766 5765 5765 5764 5763 5763 5762
5746 5747 5748 5749 5750 5750 5751 5751 5752 5753 5754 5755 5756 5757 5758 5760 5761 5762 5763 5764 5764 5764 5764 5764 5764 5764 5765 5766 5765 5765 5765 5765 5765 5764 5763 5763 5762 5761 5761 5760 5759 5758
5742 5743 5744 5745 5745 5746 5747 5747 5748 5749 5751 5752 5752 5753 5754 5756 5758 5759 5760 5760 5761 5760 5760 5760 5760 5761 5762 5762 5762 5762 5762 5761 5761 5760 5760 5759 5758 5758 5757 5756 5756 5755
5737 5738 5740 5740 5741 5741 5742 5743 5744 5746 5747 5748 5748 5750 5751 5753 5754 5755 5756 5757 5757 5757 5757 5757 5757 5758 5758 5759 5758 5758 5758 5758 5757 5757 5756 5756 5755 5754 5753 5753 5752 5751
5733 5734 5735 5736 5736 5737 5738 5740 5740 5741 5743 5744 5745 5746 5747 5748 5750 5752 5753 5753 5753 5753 5753 5753 5754 5754 5754 5755 5755 5755 5754 5754 5754 5753 5753 5752 5751 5750 5750 5749 5749 5748
5728 5730 5731 5732 5732 5733 5734 5736 5737 5737 5738 5739 5740 5742 5743 5744 5746 5748 5749 5749 5749 5750 5750 5750 5750 5750 5750 5751 5751 5751 5751 5751 5750 5750 5749 5748 5747 5746 5746 5746 5745 5745
5723 5724 5726 5727 5728 5729 5731 5732 5732 5733 5734 5735 5736 5738 5739 5741 5742 5744 5745 5745 5745 5746 5746 5746 5746 5746 5746 5747 5747 5748 5748 5747 5747 5746 5745 5744 5743 5743 5742 5742 5742 5741
5717 5719 5720 5721 5723 5725 5726 5727 5727 5728 5729 5730 5732 5733 5735 5736 5738 5739 5740 5740 5740 5741 5742 5742 5742 5742 5742 5743 5744 5744 5744 5744 5743 5742 5741 5740 5739 5739 5738 5738 5738 5737
5711 5713 5714 5717 5718 5720 5721 5722 5722 5723 5724 5725 5727 5729 5730 5731 5733 5734 5735 5735 5736 5737 5737 5738 5738 5738 5739 5740 5740 5740 5740 5739 5739 5738 5737 5736 5735 5735 5735 5735 5734 5733
5708 5709 5711 5713 5714 5714 5715 5715 5716 5717 5719 5721 5723 5724 5725 5726 5727 5728 5730 5730 5731 5732 5732 5733 5733 5733 5734 5735 5735 5735 5735 5735 5734 5734 5732 5731 5731 5731 5731 5731 5730 5730
Wind_Speed
30 32 34 36 36 35 33 31 30 27 24 25 25 25 24 22 20 21 22 21 21 21 21 21 21 21 21 21 20 20 19 19 19 19 19 20 19 19 19 20 21 21
29 31 34 35 37 37 34 32 30 26 25 25 25 25 24 22 21 22 22 21 21 22 21 21 21 21 21 21 20 20 19 19 20 20 20 19 19 19 20 21 21 22
28 31 34 36 37 37 34 33 30 26 25 26 25 25 24 23 22 22 21 21 21 22 21 21 20 21 21 21 20 20 20 20 20 20 20 19 19 19 20 21 22 22
30 33 35 36 37 36 34 32 29 25 25 26 25 25 25 24 23 22 21 21 21 21 21 21 20 20 21 21 21 20 19 19 20 20 20 20 19 20 21 22 22 23
33 36 36 35 35 35 33 31 28 25 26 26 25 25 25 24 23 21 22 22 21 21 21 21 20 20 21 21 21 20 20 20 20 20 20 20 20 21 21 22 23 23
34 34 34 35 35 34 32 30 27 26 26 26 25 25 25 24 23 22 22 22 22 21 21 21 21 20 20 21 21 20 20 20 21 21 21 21 21 22 22 23 23 23
31 31 32 33 33 32 30 28 26 27 27 26 25 25 25 24 23 22 22 22 22 21 21 21 21 21 20 20 21 21 21 21 21 21 21 22 22 22 22 23 23 23
28 28 28 30 30 28 27 27 27 28 28 27 25 25 25 24 23 22 23 23 22 22 21 21 21 21 21 21 21 21 21 21 21 21 22 22 23 23 23 23 23 24
29 28 27 28 27 26 26 27 27 28 29 27 26 25 25 24 23 23 23 23 23 23 22 22 22 22 21 21 21 21 22 22 22 22 22 22 23 23 24 24 24 24
31 29 28 28 26 25 27 28 28 29 29 28 27 25 25 24 24 23 23 23 24 24 23 23 22 22 22 21 22 22 22 22 22 22 22 22 23 23 24 24 25 25
33 31 29 28 27 27 28 29 29 30 30 29 27 26 25 24 24 24 24 24 24 24 24 23 23 22 22 22 22 23 23 23 23 22 22 22 22 22 23 24 25 25
36 33 29 28 28 29 30 31 30 31 31 29 28 27 26 24 24 24 25 25 25 25 24 23 23 23 23 23 23 23 23 23 23 22 22 21 21 21 21 22 23 24
37 33 30 30 30 30 32 32 31 32 31 30 29 27 26 25 24 24 25 25 25 25 25 24 24 24 24 24 24 24 24 24 23 22 21 21 20 20 20 21 21 22
36 32 30 30 30 31 33 32 32 32 32 31 29 28 26 25 24 25 25 25 25 26 26 25 25 25 25 25 24 24 24 23 23 22 21 21 20 20 20 20 20 21
35 32 32 31 31 32 33 32 32 33 33 31 30 28 27 25 24 24 25 25 26 26 27 26 26 26 26 25 25 25 24 23 23 22 22 21 21 20 20 20 20 21
34 33 33 32 31 32 33 33 33 33 32 32 30 29 27 26 25 24 24 25 26 27 27 27 27 27 27 26 26 26 25 24 23 23 22 22 22 22 21 21 21 22
33 33 33 32 32 33 34 34 34 33 33 32 31 30 28 27 26 25 24 25 26 27 28 28 28 28 27 27 27 27 26 25 24 23 23 23 23 23 22 22 23 24
34 34 33 33 33 34 34 35 34 33 33 33 31 30 29 27 26 25 25 25 26 27 28 29 30 29 28 28 28 28 27 26 24 24 24 24 24 24 23 24 24 25
35 34 33 33 34 34 35 35 34 33 33 33 32 32 30 28 27 26 25 25 26 28 29 30 30 30 29 29 29 28 28 26 25 25 24 24 24 24 25 25 25 26
36 34 32 32 33 35 36 35 34 33 33 33 33 32 31 29 28 26 25 25 26 28 30 31 31 30 30 30 30 29 28 27 26 25 25 25 25 26 26 26 26 26
37 35 32 31 33 35 36 35 34 34 34 34 34 33 32 31 29 25 24 25 27 29 30 31 31 31 31 31 30 30 29 27 26 26 26 27 27 27 27 27 26 26
38 36 34 33 34 36 37 36 35 35 35 35 35 34 33 32 30 26 25 26 28 29 30 31 32 31 32 32 31 30 29 27 27 27 28 28 28 28 28 28 27 27
39 39 36 35 35 37 37 37 36 36 37 37 36 35 34 33 32 29 27 28 30 30 30 31 32 32 33 33 32 31 29 29 28 29 29 30 30 29 30 29 28 27
41 41 39 37 37 38 38 38 38 39 39 38 37 36 36 35 34 32 31 31 31 30 30 32 33 34 35 35 33 32 32 32 32 32 32 32 32 31 30 29 28 28
44 44 42 39 39 39 40 40 41 41 41 40 39 38 38 37 36 34 33 34 33 32 32 33 34 36 37 36 35 35 36 35 34 34 33 33 33 31 29 28 27 28
44 44 42 41 41 42 42 42 43 43 42 41 40 39 39 39 38 37 36 36 35 34 32 33 34 35 36 36 36 36 37 36 34 33 32 33 34 32 29 27 28 29
Wind_Direction
266 266 266 267 267 267 269 272 275 277 276 272 269 268 268 265 262 262 265 270 275 279 279 280 280 282 283 285 286 286 286 286 283 279 275 272 270 268 266 265 265 264
265 267 266 265 264 265 267 270 273 275 273 271 268 267 266 264 260 260 264 270 275 278 280 281 281 282 283 284 285 286 286 286 285 283 279 274 270 267 265 264 264 265
265 265 263 262 262 263 266 268 271 272 271 269 266 264 263 261 258 260 264 269 274 277 280 282 281 282 284 284 285 285 286 288 288 287 283 277 271 267 265 265 266 267
265 262 261 261 261 263 265 267 268 268 267 266 264 262 260 259 258 259 263 268 273 277 280 281 281 282 283 284 285 285 286 288 289 288 284 278 272 268 266 267 267 269
263 261 261 261 261 264 266 266 265 264 263 263 261 260 259 258 257 258 261 267 271 275 278 279 280 281 283 284 285 285 286 287 288 288 285 279 273 269 267 268 269 271
261 261 261 260 262 266 266 264 262 262 261 259 257 258 258 257 256 257 260 265 270 273 276 277 278 280 281 283 284 284 285 286 288 288 285 280 274 271 269 270 271 273
260 260 259 259 262 265 264 261 260 260 259 257 255 255 256 255 255 256 260 265 269 271 273 275 276 278 280 283 284 284 284 284 287 288 286 282 276 272 271 271 273 275
257 257 256 258 261 262 261 259 258 259 257 255 253 254 255 253 254 256 260 265 268 270 271 273 275 277 280 283 284 284 283 283 286 288 287 283 279 274 272 272 274 275
254 254 254 257 260 261 259 257 256 257 256 253 251 253 253 252 253 256 260 264 267 268 269 271 274 277 281 284 284 283 282 282 284 287 288 286 282 277 275 274 275 276
251 254 255 256 260 262 259 255 254 255 255 252 251 252 252 251 253 256 260 263 266 267 269 271 274 278 281 284 284 282 281 281 283 286 288 288 286 281 277 276 277 278
250 253 254 256 259 262 260 254 251 252 253 251 251 250 250 250 253 256 260 263 265 267 269 272 275 278 281 283 283 282 280 280 281 284 288 290 289 285 281 279 279 280
249 251 253 255 259 261 259 252 248 250 251 250 250 249 249 250 253 257 260 262 265 267 269 272 275 278 280 281 282 281 280 280 280 283 287 290 290 288 285 284 283 284
248 249 251 254 257 259 256 250 246 248 249 248 249 248 248 250 253 257 260 262 265 267 270 272 274 276 278 279 281 281 280 280 280 281 285 288 290 290 289 288 287 287
246 247 249 253 255 256 253 248 245 246 247 247 248 247 248 250 253 257 260 262 265 268 270 271 272 273 275 277 280 281 281 280 280 280 283 286 288 290 290 290 290 289
243 244 247 251 253 254 250 246 244 245 246 247 247 247 248 249 253 256 259 262 265 268 269 270 271 272 274 276 279 281 282 281 280 280 282 284 287 289 290 290 290 290
240 243 247 250 252 252 248 244 244 244 245 247 247 246 247 249 252 255 258 261 265 267 269 269 270 270 272 275 279 282 283 281 280 280 282 283 285 286 288 289 289 289
240 246 249 250 251 250 246 244 244 243 244 246 246 246 246 248 251 254 256 260 263 266 268 269 269 270 271 274 278 281 282 282 281 281 281 282 283 285 287 287 287 288
243 248 249 250 250 247 244 244 244 243 243 245 246 246 246 248 250 252 254 258 263 266 267 268 268 268 270 273 276 279 281 281 281 281 281 282 284 285 285 285 285 287
243 246 247 248 247 243 242 243 243 243 244 245 245 245 247 248 249 250 253 258 261 264 265 266 267 268 270 272 275 277 279 280 280 281 282 283 284 284 284 283 285 287
241 242 244 247 245 242 242 243 244 244 244 244 245 245 247 249 249 250 252 256 260 262 264 266 267 268 269 270 272 274 276 277 279 281 283 284 284 285 284 284 286 288
239 240 243 246 244 242 241 243 244 245 244 244 245 245 247 249 251 251 252 255 259 262 264 266 267 267 267 268 270 272 273 275 278 281 283 284 285 286 286 286 287 287
239 241 244 246 245 242 241 242 244 245 245 244 244 244 246 249 252 253 253 255 258 261 263 265 265 266 267 268 269 270 272 274 277 281 282 283 285 287 287 286 286 287
240 242 244 246 245 242 241 242 243 244 244 244 243 244 246 248 251 254 254 255 256 259 262 264 265 265 265 265 267 269 270 271 275 279 281 281 283 285 286 286 285 285
240 241 243 245 245 242 241 241 241 242 243 243 243 244 245 247 249 251 254 255 256 258 260 262 263 264 263 264 265 266 267 269 272 275 278 280 281 283 284 283 283 284
239 240 242 244 244 242 240 239 240 241 241 242 243 243 245 247 248 249 252 255 257 258 259 262 265 266 266 266 266 267 266 267 270 273 276 277 278 280 281 279 279 283
242 243 245 246 245 243 239 238 239 240 241 242 243 243 244 247 249 250 251 254 257 259 262 265 268 270 270 268 267 267 266 266 268 270 272 277 280 279 276 274 276 281